Regional Weather Roundup
Issued by NWS Goodland, KS

Home | Current Version | Previous Version | Graphics & Text | Print | Product List | Glossary On
Versions: 1 2 3 4 5 6 7 8 9 10 11 12 13 14 15 16 17 18 19 20 21 22 23 24 25 26 27 28 29 30 31 32 33 34 35 36 37 38 39 40 41 42 43 44 45 46 47 48 49 50
000
ASUS43 KGLD 100059
RWRGLD

GOODLAND FORECAST AREA HOURLY WEATHER ROUNDUP
NATIONAL WEATHER SERVICE GOODLAND KS
600 PM MST TUE FEB 09 2016

...OFFICIAL OBSERVATIONS...

CITY           SKY/WX    TMP DP  RH WIND       PRES   REMARKS
GOODLAND KS    CLEAR     38  30  73 W9        30.22S
HILL CITY KS   CLOUDY    33  24  69 SE6       30.25F
IMPERIAL NEB   CLOUDY    41  30  65 W10       30.18S
MCCOOK NEB     CLOUDY    34  24  67 S3        30.20F
AKRON CO       CLEAR     40  30  67 W15       30.22F
BURLINGTON CO  CLEAR     37  28  70 W8        30.24S
LIMON CO       CLEAR     33  25  72 W8        30.30S
$$

...UNOFFICIAL OBSERVATIONS...

CITY           SKY/WX    TMP DP  RH WIND       PRES   REMARKS
COLBY KS       CLOUDY    37  34  87 SW5       30.22S
GOVE KS          N/A     37  32  82 MISG        N/A
LENORA KS        N/A     34  32  92 MISG        N/A
NORTON KS      CLOUDY    34  21  60 S9        30.22
SHARON SPRINGS   N/A     38  31  75 W7          N/A
KIT CARSON CO    N/A     38  28  67 MISG        N/A
YUMA CO          N/A     38  31  74 W8          N/A
$$




USA.gov is the U.S. government's official web portal to all federal, state and local government web resources and services.